www.pogodaiklimat.ru

Погода и климат >> Архив погоды >> Оман >> Эль-Бурайми


ПОГОДА в Эль-Бурайми

  • Прогноз погоды в Эль-Бурайми
  • Монитор погоды в Эль-Бурайми

АРХИВ ПОГОДЫ в Эль-Бурайми

Время (UTC), дата Ветер
(напр.,м/с)
 
Видим.   Явления Облачность Т
(С)
Тd
(С)
f
(%)
Тe
(С)
Тes
(С)
Комфортность P
(гПа)
Po
(гПа)
Тmin
(С)
Tmax
(С)
R
(мм)
R24
(мм)
S
(см)
09 13.06 В 3 н/о н/о +44.2 -5.3 4 +40 +40 очень
жарко
995.7 957.6
12 13.06 В 4 н/о н/о +45.3 -4.6 4 +41 +41 опасность
перегрева
993.5 955.6
15 13.06 В 5 н/о н/о +43.0 -8.1 4 +39 +39 очень
жарко
994.2 956.0
18 13.06 СВ 1 н/о н/о +39.0 +2.4 10 +35 +35 очень
жарко
996.1 957.4 +45.9
21 13.06 ЮВ 1 н/о н/о +34.1 +10.6 24 +33 +33 жарко 995.9 956.7
00 14.06 Ю 6 н/о н/о +34.1 -0.3 11 +31 +31 жарко 996.4 957.1
03 14.06 ЮВ 4 н/о н/о +33.7 +1.9 13 +31 +31 жарко 998.0 958.6
06 14.06 Ю 8 н/о н/о +41.0 +0.3 8 +37 +37 очень
жарко
997.3 958.8 +32.6
09 14.06 ЮВ 7 н/о н/о +44.1 +1.5 7 +40 +40 очень
жарко
995.7 957.6
12 14.06 ЮВ 4 н/о н/о +45.0 +0.1 6 +41 +41 опасность
перегрева
993.5 955.6
15 14.06 В 4 н/о н/о +43.3 +6.6 11 +41 +41 опасность
перегрева
994.0 955.9
18 14.06 С 4 н/о н/о +37.8 +21.6 39 +45 +45 опасность
перегрева
996.4 957.7 +46.0
21 14.06 СВ 2 н/о н/о +35.4 +20.0 41 +41 +41 опасность
перегрева
995.6 956.7
00 15.06 ЮВ 1 н/о н/о +32.6 +17.5 41 +37 +37 очень
душно
995.6 956.3
03 15.06 Ю 4 н/о н/о +34.2 +8.8 21 +33 +33 жарко 997.5 958.2
06 15.06 Ю 9 н/о н/о +40.9 +6.3 12 +38 +38 очень
жарко
997.0 958.5 +32.5
09 15.06 ЮВ 7 н/о н/о +43.9 +6.9 11 +41 +41 опасность
перегрева
995.8 957.7
12 15.06 ЮВ 5 н/о н/о +44.9 +6.3 10 +42 +42 опасность
перегрева
993.9 956.0
15 15.06 В 5 н/о н/о +43.5 +6.2 11 +41 +41 опасность
перегрева
994.4 956.3
18 15.06 СВ 2 н/о н/о +39.1 +19.3 32 +44 +44 опасность
перегрева
996.4 957.9 +46.1
21 15.06 штиль 0 н/о н/о +35.5 +17.7 35 +39 +39 очень
душно
996.2 957.2
00 16.06 С 1 н/о н/о +33.6 +16.4 36 +36 +36 очень
душно
995.7 956.5
03 16.06 В 3 н/о н/о +36.5 +13.4 25 +37 +37 очень
жарко
997.1 958.1
06 16.06 СВ 1 н/о н/о +43.7 +9.4 13 +42 +42 опасность
перегрева
996.8 958.7 +33.2
09 16.06 С 4 н/о н/о +46.1 +0.7 6 +42 +42 опасность
перегрева
995.1 957.3
12 16.06 СВ 4 н/о н/о +46.0 +1.3 7 +43 +43 опасность
перегрева
993.6 955.8
15 16.06 В 7 н/о н/о +42.8 +4.6 10 +40 +40 очень
жарко
994.9 956.7
18 16.06 С 2 н/о н/о +40.2 +6.7 13 +38 +38 очень
жарко
996.7 958.1 +46.9
21 16.06 штиль 0 н/о н/о +33.6 +12.1 27 +34 +34 очень
жарко
997.0 957.7
00 17.06 ЮВ 5 н/о н/о +35.1 +4.7 15 +32 +32 жарко 996.8 957.6
03 17.06 ЮВ 1 н/о н/о +36.1 +12.2 24 +36 +36 очень
жарко
998.2 959.1
06 17.06 ЮВ 3 н/о н/о +41.1 +12.3 18 +40 +40 очень
жарко
998.2 959.7 +33.2
09 17.06 СВ 4 н/о н/о +46.2 -3.4 5 +42 +42 опасность
перегрева
996.0 958.1
12 17.06 СВ 5 н/о н/о +47.2 -3.7 4 +43 +43 опасность
перегрева
993.8 956.1
15 17.06 С 6 н/о н/о +42.8 +8.4 13 +41 +41 опасность
перегрева
995.1 957.0
18 17.06 СВ 2 н/о н/о +38.2 +6.5 14 +36 +36 очень
жарко
996.7 958.0 +48.0
21 17.06 н/о н/о +34.0 +10.7 24 996.3 957.1
00 18.06 В 2 н/о н/о +34.5 +9.6 22 +33 +33 жарко 995.3 956.2
03 18.06 ЮВ 3 н/о н/о +33.8 +5.9 18 +32 +32 жарко 996.9 957.5
06 18.06 Ю 6 н/о н/о +39.0 +15.8 26 +41 +41 опасность
перегрева
996.4 957.8 +32.1
09 18.06 ЮВ 3 н/о н/о +44.0 +9.8 13 +42 +42 опасность
перегрева
994.3 956.3
12 18.06 СВ 6 н/о н/о +45.3 +7.0 10 +43 +43 опасность
перегрева
992.8 955.0
15 18.06 СВ 8 н/о н/о +40.8 +21.8 34 +48 +48 опасность
перегрева
993.4 955.2
18 18.06 С 5 н/о н/о +36.9 +13.7 25 +37 +37 очень
жарко
995.7 956.8 +46.2
21 18.06 С 1 н/о н/о +33.2 +17.2 39 +37 +37 очень
душно
995.4 956.2
00 19.06 н/о н/о +30.8 +20.6 55 995.5 956.0
03 19.06 Ю 1 н/о н/о +31.2 +21.2 55 +39 +39 очень
душно
996.0 956.5
06 19.06 В 3 н/о н/о +36.1 +16.7 32 +39 +39 очень
душно
995.4 956.5 +29.8
09 19.06 ЮВ 2 н/о н/о +40.6 +10.9 17 +39 +39 очень
жарко
993.7 955.3
12 19.06 В 6 н/о н/о +43.3 +5.5 10 +40 +40 очень
жарко
991.4 953.4
15 19.06 СВ 6 н/о н/о +38.8 +15.7 26 +40 +40 очень
душно
992.6 954.1
18 19.06 СВ 6 н/о н/о +33.4 +20.6 47 +40 +40 очень
душно
995.6 956.4 +43.7
21 19.06 СВ 3 н/о н/о +30.1 +23.0 66 +40 +40 очень
душно
995.4 955.9
00 20.06 С 3 н/о н/о +28.6 +23.0 72 +38 +38 очень
душно
995.4 955.6
03 20.06 С 1 н/о н/о +29.0 +22.8 69 +38 +38 очень
душно
996.5 956.8
06 20.06 В 3 н/о н/о +34.2 +20.8 46 +41 +41 опасность
перегрева
996.5 957.4 +28.1

 

Местоположение метеостанции Эль-Бурайми (Оман): широта 24.23 долгота 55.78 высота над уровнем моря 299 м.

В архиве по умолчанию представлена погода в Эль-Бурайми за последнюю неделю. Архивные данные за месяц целиком и за предыдущие месяцы, начиная с января 2011 года, Вы можете получить, выбрав интересующий диапазон дат из раскрывающегося списка и нажав кнопку "Ввод!".


*Определитесь, кто Вы:
робот инопланетянин человек

Внимание! Время в таблицах - всемирное. Для получения местного времени необходимо прибавить поправку, которая равна 4 ч.

Смотрите также архив погоды в соседних городах и на ближайших метеорологических станциях:

Погода в Эль-Айне (ОАЭ) (19 км)
Погода в Кумейре (Оман) (54 км)
Погода в Сухаре (Оман) (90 км)
Погода в Аль-Мактум аэропорту (ОАЭ) (97 км)
Погода в Фуджейре (ОАЭ) (112 км)
Погода в Абу-Даби (ОАЭ) (117 км)
Погода в Ибри (Оман) (117 км)
Погода в Дубае (ОАЭ) (122 км)
Погода в Шардже (ОАЭ) (125 км)
Погода в Абу-Даби Батин аэропорту (ОАЭ) (136 км)

Пояснения к столбцам:

Ветер - указаны скорость ветра в м/с - средняя за 10 мин, порывы в срок и между сроками (в фигурных скобках) и направление, откуда дует ветер: С - северный, СВ - северо-восточный, В - восточный, ЮВ - юго-восточный, Ю - южный, ЮЗ - юго-западный, З - западный, СЗ - северо-западный.
Видимость - горизонтальная дальность видимости в метрах или километрах. При видимости от 1 до 10 км при отсутствии осадков обычно наблюдается дымка, при ухудшении видимости до 1 км и менее - туман. В сухую погоду видимость может ухудшаться дымом, пылью или мглою.
Явления - указаны атмосферные явления, наблюдавшиеся в срок или в последний час перед сроком; фигурными скобками обозначены явления, наблюдавшиеся между сроками (за 1-3 часа до срока); квадратными скобками обозначены град или гололедные отложения с указанием их диаметра в мм.
Облачность - указаны через наклонную черту общая и нижняя облачность в баллах и высота нижней границы облаков в метрах; квадратными скобками обозначены формы облаков: Ci - перистые, Cs - перисто-слоистые, Cc - перисто-кучевые, Ac - высококучевые, As - высокослоистые, Sc - слоисто-кучевые, Ns - слоисто-дождевые, Cu - кучевые, Cb - кучево-дождевые. Подробнее классификацию облаков см. в Атласе облаков (PDF).
T - Температура воздуха - температура, измеренная на высоте 2 м над землей.
Td - Температура точки росы - температура, при понижении до которой содержащийся в воздухе водяной пар достигнет насыщения.
f - Относительная влажность воздуха - влажноcть воздуха, измеренная на высоте 2 м над землей.
Te - Эффективная температура - температура, которую ощущает одетый по сезону человек в тени. Характеристика душности погоды. При расчете учитывается влияние влажности воздуха и скорости ветра на теплоощущения человека.
Tes - Эффективная температура на солнце - температура, которую ощущает человек, с поправкой на солнечный нагрев. Характеристика знойности погоды. Зависит от высоты солнца над горизонтом, облачности и скорости ветра. Ночью, в пасмурную погоду, а также при ветре 12 м/с и более поправка равна нулю.
P - Атмосферное давление - приведенное к уровню моря атмосферное давление.
Po - Атмосферное давление - измеренное на уровне метеостанции атмосферное давление.
Tmin - Минимальная температура - минимум температуры воздуха на высоте 2 м над землей.
Tmax - Максимальная температура - максимум температуры воздуха на высоте 2 м над землей.
R - Количество осадков - Количество выпавших осадков за период времени, мм. При наведении курсора мыши на число - период времени, за который выпало указанное количество осадков.
R24 - Количество осадков - Количество выпавших осадков за 24 часа, мм.
S - Снежный покров - Высота снежного покрова, см. При наведении курсора мыши на число - состояние снежного покрова и степень покрытия местности в баллах.